Time,TemperatureF,DewpointF,PressureIn,WindDirection,WindDirectionDegrees,WindSpeedMPH,WindSpeedGustMPH,Humidity,HourlyPrecipIn,Conditions,Clouds,dailyrainin,SolarRadiationWatts/m^2,SoftwareType,DateUTC
2013-08-08 00:01:00,61.0,36.0,-100.00,North,7,12.0,20.0,39,0.00,,,0.00,0.000000,,2013-08-08 07:01:00,
2013-08-08 00:43:00,60.0,43.0,-100.00,NNE,19,6.0,19.0,53,0.00,,,-99.99,0.000000,,2013-08-08 07:43:00,
2013-08-08 00:53:00,60.0,43.0,-100.00,NNE,19,6.0,19.0,53,0.00,,,-99.99,0.000000,,2013-08-08 07:53:00,
2013-08-08 01:01:00,60.0,43.0,-100.00,NNE,19,6.0,19.0,53,0.00,,,-99.99,0.000000,,2013-08-08 08:01:00,
2013-08-08 01:11:00,60.0,43.0,-100.00,NNE,19,6.0,19.0,53,0.00,,,-99.99,0.000000,,2013-08-08 08:11:00,
2013-08-08 01:32:00,57.0,48.0,-100.00,ENE,69,4.0,15.0,71,-99.99,,,0.00,0.000000,,2013-08-08 08:32:00,
2013-08-08 01:43:00,57.0,48.0,-100.00,ENE,69,4.0,15.0,71,-99.99,,,0.00,0.000000,,2013-08-08 08:43:00,
2013-08-08 01:53:00,57.0,48.0,-100.00,ENE,69,4.0,15.0,71,-99.99,,,0.00,0.000000,,2013-08-08 08:53:00,
2013-08-08 02:01:00,57.0,48.0,-100.00,ENE,69,4.0,15.0,71,-99.99,,,0.00,0.000000,,2013-08-08 09:01:00,
2013-08-08 02:11:00,57.0,48.0,-100.00,ENE,69,4.0,15.0,71,-99.99,,,0.00,0.000000,,2013-08-08 09:11:00,
2013-08-08 02:43:00,54.0,49.0,-100.00,ENE,70,4.0,9.0,82,0.00,,,0.00,0.000000,,2013-08-08 09:43:00,
2013-08-08 02:53:00,54.0,49.0,-100.00,ENE,70,4.0,9.0,82,0.00,,,0.00,0.000000,,2013-08-08 09:53:00,
2013-08-08 03:01:00,54.0,49.0,-100.00,ENE,70,4.0,9.0,82,0.00,,,0.00,0.000000,,2013-08-08 10:01:00,
2013-08-08 03:11:00,54.0,49.0,-100.00,ENE,70,4.0,9.0,82,0.00,,,0.00,0.000000,,2013-08-08 10:11:00,
2013-08-08 03:43:00,52.0,49.0,-100.00,ENE,73,3.0,9.0,88,0.00,,,0.00,0.000000,,2013-08-08 10:43:00,
2013-08-08 03:52:00,52.0,49.0,-100.00,ENE,73,3.0,9.0,88,0.00,,,0.00,0.000000,,2013-08-08 10:52:00,
2013-08-08 04:01:00,52.0,49.0,-100.00,ENE,73,3.0,9.0,88,0.00,,,0.00,0.000000,,2013-08-08 11:01:00,
2013-08-08 04:11:00,52.0,49.0,-100.00,ENE,73,3.0,9.0,88,0.00,,,0.00,0.000000,,2013-08-08 11:11:00,
2013-08-08 04:43:00,53.0,49.0,-100.00,ENE,58,5.0,7.0,86,0.00,,,0.00,0.000000,,2013-08-08 11:43:00,
2013-08-08 04:52:00,53.0,49.0,-100.00,ENE,58,5.0,7.0,86,0.00,,,0.00,0.000000,,2013-08-08 11:52:00,
2013-08-08 05:01:00,53.0,49.0,-100.00,ENE,58,5.0,7.0,86,0.00,,,0.00,0.000000,,2013-08-08 12:01:00,
2013-08-08 05:11:00,53.0,49.0,-100.00,ENE,58,5.0,7.0,86,0.00,,,0.00,0.000000,,2013-08-08 12:11:00,
2013-08-08 05:43:00,49.0,49.0,-100.00,NE,50,6.0,8.0,99,0.00,,,-99.99,0.000000,,2013-08-08 12:43:00,
2013-08-08 05:53:00,49.0,49.0,-100.00,NE,50,6.0,8.0,99,0.00,,,-99.99,0.000000,,2013-08-08 12:53:00,
2013-08-08 06:01:00,49.0,49.0,-100.00,NE,50,6.0,8.0,99,0.00,,,-99.99,0.000000,,2013-08-08 13:01:00,
2013-08-08 06:11:00,49.0,49.0,-100.00,NE,50,6.0,8.0,99,0.00,,,-99.99,0.000000,,2013-08-08 13:11:00,
2013-08-08 06:43:00,53.0,50.0,-100.00,NE,35,6.0,9.0,88,0.00,,,0.00,1.000000,,2013-08-08 13:43:00,
2013-08-08 06:53:00,53.0,50.0,-100.00,NE,35,6.0,9.0,88,0.00,,,0.00,1.000000,,2013-08-08 13:53:00,
2013-08-08 07:02:00,53.0,50.0,-100.00,NE,35,6.0,9.0,88,0.00,,,0.00,1.000000,,2013-08-08 14:02:00,
2013-08-08 07:11:00,53.0,50.0,-100.00,NE,35,6.0,9.0,88,0.00,,,0.00,1.000000,,2013-08-08 14:11:00,
2013-08-08 07:43:00,57.0,50.0,-100.00,NNE,15,4.0,10.0,76,0.00,,,0.00,43.000000,,2013-08-08 14:43:00,
2013-08-08 07:53:00,57.0,50.0,-100.00,NNE,15,4.0,10.0,76,0.00,,,0.00,43.000000,,2013-08-08 14:53:00,
2013-08-08 08:02:00,57.0,50.0,-100.00,NNE,15,4.0,10.0,76,0.00,,,0.00,43.000000,,2013-08-08 15:02:00,
2013-08-08 08:11:00,57.0,50.0,-100.00,NNE,15,4.0,10.0,76,0.00,,,0.00,43.000000,,2013-08-08 15:11:00,
2013-08-08 08:43:00,63.0,51.0,-100.00,East,94,4.0,9.0,64,0.00,,,-99.99,178.000000,,2013-08-08 15:43:00,
2013-08-08 08:53:00,63.0,51.0,-100.00,East,94,4.0,9.0,64,0.00,,,-99.99,178.000000,,2013-08-08 15:53:00,
2013-08-08 09:01:00,63.0,51.0,-100.00,East,94,4.0,9.0,64,0.00,,,-99.99,178.000000,,2013-08-08 16:01:00,
2013-08-08 09:11:00,63.0,51.0,-100.00,East,94,4.0,9.0,64,0.00,,,-99.99,178.000000,,2013-08-08 16:11:00,
2013-08-08 09:42:00,65.0,52.0,-100.00,East,88,5.0,10.0,62,0.00,,,0.00,363.000000,,2013-08-08 16:42:00,
2013-08-08 09:52:00,65.0,52.0,-100.00,East,88,5.0,10.0,62,0.00,,,0.00,363.000000,,2013-08-08 16:52:00,
2013-08-08 10:01:00,65.0,52.0,-100.00,East,88,5.0,10.0,62,0.00,,,0.00,363.000000,,2013-08-08 17:01:00,
2013-08-08 10:11:00,65.0,52.0,-100.00,East,88,5.0,10.0,62,0.00,,,0.00,363.000000,,2013-08-08 17:11:00,
2013-08-08 10:43:00,68.0,50.0,-100.00,ENE,66,4.0,11.0,53,0.00,,,0.00,589.000000,,2013-08-08 17:43:00,
2013-08-08 10:52:00,68.0,50.0,-100.00,ENE,66,4.0,11.0,53,0.00,,,0.00,589.000000,,2013-08-08 17:52:00,
2013-08-08 11:01:00,68.0,50.0,-100.00,ENE,66,4.0,11.0,53,0.00,,,0.00,589.000000,,2013-08-08 18:01:00,
2013-08-08 11:11:00,68.0,50.0,-100.00,ENE,66,4.0,11.0,53,0.00,,,0.00,589.000000,,2013-08-08 18:11:00,
2013-08-08 11:43:00,69.0,52.0,-100.00,ESE,109,6.0,10.0,54,0.00,,,0.00,707.000000,,2013-08-08 18:43:00,
2013-08-08 11:52:00,69.0,52.0,-100.00,ESE,109,6.0,10.0,54,0.00,,,0.00,707.000000,,2013-08-08 18:52:00,
2013-08-08 12:01:00,69.0,52.0,-100.00,ESE,109,6.0,10.0,54,0.00,,,0.00,707.000000,,2013-08-08 19:01:00,
2013-08-08 12:11:00,69.0,52.0,-100.00,ESE,109,6.0,10.0,54,0.00,,,0.00,707.000000,,2013-08-08 19:11:00,
2013-08-08 12:43:00,68.0,53.0,-100.00,WNW,291,3.0,11.0,58,0.00,,,0.00,649.000000,,2013-08-08 19:43:00,
2013-08-08 12:57:00,68.0,53.0,-100.00,WNW,291,3.0,11.0,58,0.00,,,0.00,649.000000,,2013-08-08 19:57:00,
2013-08-08 13:11:00,68.0,53.0,-100.00,WNW,291,3.0,11.0,58,0.00,,,0.00,649.000000,,2013-08-08 20:11:00,
2013-08-08 13:12:00,75.0,52.0,-100.00,NNE,22,3.0,9.0,45,0.00,,,0.00,825.000000,,2013-08-08 20:12:00,
2013-08-08 13:42:00,75.0,52.0,-100.00,NNE,22,3.0,9.0,45,0.00,,,0.00,825.000000,,2013-08-08 20:42:00,
2013-08-08 13:52:00,75.0,52.0,-100.00,NNE,22,3.0,9.0,45,0.00,,,0.00,825.000000,,2013-08-08 20:52:00,
2013-08-08 14:01:00,75.0,52.0,-100.00,NNE,22,3.0,9.0,45,0.00,,,0.00,825.000000,,2013-08-08 21:01:00,
2013-08-08 14:12:00,72.0,49.0,-100.00,WSW,247,3.0,11.0,45,0.00,,,0.00,572.000000,,2013-08-08 21:12:00,
2013-08-08 14:34:00,72.0,49.0,-100.00,WSW,247,3.0,11.0,45,0.00,,,0.00,572.000000,,2013-08-08 21:34:00,
2013-08-08 14:56:00,72.0,49.0,-100.00,WSW,247,3.0,11.0,45,0.00,,,0.00,572.000000,,2013-08-08 21:56:00,
2013-08-08 15:03:00,72.0,49.0,-100.00,WSW,247,3.0,11.0,45,0.00,,,0.00,572.000000,,2013-08-08 22:03:00,
2013-08-08 15:12:00,70.0,53.0,-100.00,NW,311,7.0,13.0,54,0.00,,,-99.99,458.000000,,2013-08-08 22:12:00,
2013-08-08 15:49:00,70.0,53.0,-100.00,NW,311,7.0,13.0,54,0.00,,,-99.99,458.000000,,2013-08-08 22:49:00,
2013-08-08 15:56:00,70.0,53.0,-100.00,NW,311,7.0,13.0,54,0.00,,,-99.99,458.000000,,2013-08-08 22:56:00,
2013-08-08 16:12:00,71.0,52.0,-100.00,NW,317,6.0,14.0,52,0.00,,,0.00,507.000000,,2013-08-08 23:12:00,
2013-08-08 16:49:00,71.0,52.0,-100.00,NW,317,6.0,14.0,52,0.00,,,0.00,507.000000,,2013-08-08 23:49:00,
2013-08-08 16:56:00,71.0,52.0,-100.00,NW,317,6.0,14.0,52,0.00,,,0.00,507.000000,,2013-08-08 23:56:00,
2013-08-08 17:02:00,71.0,52.0,-100.00,NW,317,6.0,14.0,52,0.00,,,0.00,507.000000,,2013-08-09 00:02:00,
2013-08-08 17:12:00,67.0,55.0,-100.00,NW,307,9.0,16.0,65,0.00,,,0.00,299.000000,,2013-08-09 00:12:00,
2013-08-08 17:48:00,67.0,55.0,-100.00,NW,307,9.0,16.0,65,0.00,,,0.00,299.000000,,2013-08-09 00:48:00,
2013-08-08 17:55:00,67.0,55.0,-100.00,NW,307,9.0,16.0,65,0.00,,,0.00,299.000000,,2013-08-09 00:55:00,
2013-08-08 18:01:00,67.0,55.0,-100.00,NW,307,9.0,16.0,65,0.00,,,0.00,299.000000,,2013-08-09 01:01:00,
2013-08-08 18:12:00,65.0,55.0,-100.00,WNW,297,7.0,15.0,70,0.00,,,0.00,333.000000,,2013-08-09 01:12:00,
2013-08-08 18:46:00,65.0,55.0,-100.00,WNW,297,7.0,15.0,70,0.00,,,0.00,333.000000,,2013-08-09 01:46:00,
2013-08-08 18:59:00,65.0,55.0,-100.00,WNW,297,7.0,15.0,70,0.00,,,0.00,333.000000,,2013-08-09 01:59:00,
2013-08-08 19:12:00,62.0,55.0,-100.00,WNW,290,9.0,16.0,79,0.00,,,0.00,98.000000,,2013-08-09 02:12:00,
2013-08-08 19:47:00,62.0,55.0,-100.00,WNW,290,9.0,16.0,79,0.00,,,0.00,98.000000,,2013-08-09 02:47:00,
2013-08-08 19:56:00,62.0,55.0,-100.00,WNW,290,9.0,16.0,79,0.00,,,0.00,98.000000,,2013-08-09 02:56:00,
2013-08-08 20:04:00,62.0,55.0,-100.00,WNW,290,9.0,16.0,79,0.00,,,0.00,98.000000,,2013-08-09 03:04:00,
2013-08-08 20:12:00,60.0,56.0,-100.00,WNW,303,11.0,14.0,86,0.00,,,0.00,27.000000,,2013-08-09 03:12:00,
2013-08-08 20:47:00,60.0,56.0,-100.00,WNW,303,11.0,14.0,86,0.00,,,0.00,27.000000,,2013-08-09 03:47:00,
2013-08-08 21:01:00,60.0,56.0,-100.00,WNW,303,11.0,14.0,86,0.00,,,0.00,27.000000,,2013-08-09 04:01:00,
2013-08-08 21:33:00,59.0,55.0,-100.00,WNW,302,11.0,13.0,88,0.00,,,0.00,2.000000,,2013-08-09 04:33:00,
2013-08-08 21:43:00,59.0,55.0,-100.00,WNW,302,11.0,13.0,88,0.00,,,0.00,2.000000,,2013-08-09 04:43:00,
2013-08-08 21:53:00,59.0,55.0,-100.00,WNW,302,11.0,13.0,88,0.00,,,0.00,2.000000,,2013-08-09 04:53:00,
2013-08-08 22:01:00,59.0,55.0,-100.00,WNW,302,11.0,13.0,88,0.00,,,0.00,2.000000,,2013-08-09 05:01:00,
2013-08-08 22:11:00,59.0,55.0,-100.00,WNW,302,11.0,13.0,88,0.00,,,0.00,2.000000,,2013-08-09 05:11:00,
2013-08-08 22:43:00,58.0,55.0,-100.00,WNW,303,10.0,13.0,90,0.00,,,0.00,0.000000,,2013-08-09 05:43:00,
2013-08-08 22:52:00,58.0,55.0,-100.00,WNW,303,10.0,13.0,90,0.00,,,0.00,0.000000,,2013-08-09 05:52:00,
2013-08-08 23:01:00,58.0,55.0,-100.00,WNW,303,10.0,13.0,90,0.00,,,0.00,0.000000,,2013-08-09 06:01:00,
2013-08-08 23:11:00,58.0,55.0,-100.00,WNW,303,10.0,13.0,90,0.00,,,0.00,0.000000,,2013-08-09 06:11:00,
2013-08-08 23:12:00,58.0,55.0,-100.00,NW,308,10.0,13.0,90,0.00,,,0.00,0.000000,,2013-08-09 06:12:00,
2013-08-08 23:43:00,58.0,55.0,-100.00,NW,308,10.0,13.0,90,0.00,,,0.00,0.000000,,2013-08-09 06:43:00,
2013-08-08 23:52:00,58.0,55.0,-100.00,NW,308,10.0,13.0,90,0.00,,,0.00,0.000000,,2013-08-09 06:52:00,